Date,TemperatureHighF,TemperatureAvgF,TemperatureLowF,DewpointHighF,DewpointAvgF,DewpointLowF,HumidityHigh,HumidityAvg,HumidityLow,PressureMaxIn,PressureMinIn,WindSpeedMaxMPH,WindSpeedAvgMPH,GustSpeedMaxMPH,PrecipitationSumIn
2013-2-1,32.2,28.4,19.0,17.5,10.6,5.0,71,47,33,30.04,29.50,17,4,19,0.00
2013-2-2,30.0,23.0,15.3,12.8,7.8,4.3,69,52,36,30.21,30.02,10,1,15,0.00
2013-2-3,27.4,24.9,20.9,19.5,16.9,12.7,88,72,55,30.03,29.68,10,2,10,0.00
2013-2-4,30.6,25.1,20.4,17.1,9.0,1.4,75,52,31,29.87,29.67,19,3,19,0.00
2013-2-5,29.6,21.7,13.6,16.1,8.1,2.4,72,56,38,30.01,29.87,7,1,7,0.00
2013-2-6,38.8,28.7,21.8,26.5,18.1,-3.0,88,66,32,30.28,29.91,14,2,18,0.01
2013-2-7,27.5,21.3,15.1,12.0,-0.9,-5.5,62,38,26,30.50,30.27,12,2,13,0.00
2013-2-8,28.2,18.3,14.7,23.7,14.3,10.7,88,84,60,30.49,29.68,26,6,26,0.00
2013-2-9,23.1,17.9,13.7,17.1,12.2,5.3,89,79,61,30.14,29.58,28,7,30,0.00
2013-2-10,39.7,22.7,9.8,15.6,6.9,0.5,76,53,25,30.36,30.14,8,1,8,0.01
2013-2-11,38.8,27.9,15.5,33.5,22.8,9.9,87,81,72,30.32,29.57,12,0,12,0.11
2013-2-12,44.8,37.9,33.0,32.6,30.7,28.0,88,76,54,29.63,29.54,15,2,17,0.00
2013-2-13,45.2,35.6,29.3,27.1,24.9,23.1,83,66,45,29.83,29.66,8,1,10,0.00
2013-2-14,43.5,34.4,30.6,28.4,24.4,20.7,85,67,44,29.96,29.66,8,1,11,0.00
2013-2-15,53.5,37.5,25.0,36.3,30.0,21.6,88,76,47,29.96,29.84,9,1,12,0.00
2013-2-16,40.1,34.7,30.3,32.4,27.0,11.9,87,74,51,29.92,29.66,16,2,16,0.00
2013-2-17,30.7,21.5,16.2,19.4,10.9,3.3,88,65,42,29.70,29.28,27,6,31,0.00
2013-2-18,32.0,22.5,13.7,7.3,1.9,-4.0,60,43,23,30.08,29.55,25,5,27,0.00
2013-2-19,41.8,33.4,22.5,37.2,20.0,0.5,87,60,33,30.11,29.52,10,2,12,0.47
2013-2-20,39.6,33.6,27.2,33.4,22.8,15.5,88,65,51,29.70,29.46,18,3,19,0.00
2013-2-21,29.9,26.7,22.8,18.4,14.0,9.9,69,59,46,30.15,29.68,16,3,18,0.00
2013-2-22,41.2,31.4,22.2,26.0,21.8,16.8,81,68,47,30.38,30.14,12,2,14,0.00
2013-2-23,39.4,35.2,31.0,34.2,30.1,25.0,87,82,73,30.32,29.93,11,1,11,0.06
2013-2-24,37.1,33.3,29.4,32.7,28.1,23.9,84,81,79,29.94,29.71,15,3,15,0.15
2013-2-25,40.9,32.9,26.9,33.3,27.8,22.4,88,81,71,30.21,29.87,5,0,6,0.15
2013-2-26,31.1,30.6,29.9,26.2,25.7,25.1,82,82,81,30.22,30.21,0,0,0,0.00
2013-2-27,41.6,38.1,34.0,37.6,33.8,28.8,88,85,78,30.11,29.54,23,8,26,0.84
2013-2-28,46.9,38.3,33.4,37.5,33.2,28.3,88,82,69,29.60,29.50,12,2,14,0.00